Tracking 28081 objects as of 26-Sep-2023
HD Live streaming from Space Station
objects crossing your sky now

ARABSAT 2B

Track ARABSAT 2B now!
ARABSAT 2B is classified as:


NORAD ID: 24652
Int'l Code: 1996-063A
Perigee: 36,008.1 km
Apogee: 36,065.9 km
Inclination: 8.4 °
Period: 1,448.5 minutes
Semi major axis: 42408 km
RCS: 3.8888 m2 (large)
Launch date: November 13, 1996
Source: Arab Satellite Communications Organization (AB)
Launch site: FRENCH GUIANA (FRGUI)

Second generation; radio and tv communications to Middle East.
Your satellite tracking list
Your tracking list is empty




NASA's NSSDC Master Catalog

Two Line Element Set (TLE):
1 24652U 96063A   23268.47572115 -.00000129  00000-0  00000-0 0  9999
2 24652   8.4164  57.3252 0006816 119.7854 277.9318  0.99410163 98562
Source of the keplerian elements: AFSPC